Location: Bothwell
(42.3833°S, 147.0000°E)
Time: 03:30:51
(UTC+11:00)

DOVE 4 - Pass Details

Date: 03 October 2022
Orbit: 587 x 795 km, 97.8° (Epoch: 30 November)

Event Time Altitude Azimuth Distance (km) Brightness Sun altitude
Exits shadow 22:44:57 17° 156° (SSE) 1,945 ? -34.3°
Drops below altitude 10° 22:46:31 10° 169° (S) 2,402 ? -34.5°
Sets 22:49:13 0° 181° (S) 3,338 ? -34.8°
